ATLAS CENTAUR 2 R/B 1 00694U 63047A 09183.54015601 +.00000160 +00000-0 +72984-5 0 09983 2 00694 030.3563 221.1360 0616938 164.7004 197.3178 13.95018229275595 THOR AGENA D R/B 1 00733U 64002A 09183.62635921 -.00000015 +00000-0 +12506-4 0 08130 2 00733 099.1178 206.2128 0034359 350.3167 009.7342 14.31261317366414 SL-3 R/B 1 00877U 64053B 09183.64159538 -.00000079 +00000-0 +89013-5 0 01313 2 00877 065.0770 135.9150 0068551 185.7491 174.2849 14.58087436377595 SL-8 R/B 1 02802U 67045B 09183.50722147 +.00000025 +00000-0 +15509-4 0 00502 2 02802 074.0090 171.8939 0068598 205.2075 154.5728 14.42459847209729 SL-8 R/B 1 03230U 68040B 09183.79033329 +.00000087 +00000-0 +14894-4 0 06894 2 03230 074.0372 269.6764 0034905 272.4832 087.2338 14.84215992203564 OAO 2 1 03597U 68110A 09183.86211575 -.00000010 00000-0 25018-5 0 866 2 03597 034.9963 002.8053 0005596 038.2623 321.8468 14.44866893137227 ISIS 1 1 03669U 69009A 09183.83751331 +.00000110 +00000-0 +62893-4 0 09062 2 03669 088.4298 110.1132 1714804 130.9360 245.3382 11.28858717660974 METEOR 1-1 1 03835U 69029A 09183.78429289 .00001590 00000-0 29626-4 0 1216 2 03835 081.1656 027.1626 0008040 165.7858 194.3614 15.48107247199796 SERT 2 1 04327U 70009A 09183.68814710 +.00000032 +00000-0 +10000-3 0 00426 2 04327 099.2122 056.0554 0004306 286.6213 073.4450 13.58227277952901 SL-3 R/B 1 04814U 70113B 09183.63309248 -.00000174 +00000-0 -10951-4 0 09988 2 04814 081.1513 204.7852 0041163 152.9147 207.4259 15.13604325092572 SL-3 R/B 1 05118U 71028B 09183.79009328 .00000819 00000-0 58683-4 0 1806 2 05118 081.2374 218.6156 0049043 161.7352 198.5652 15.02308747 66461 ASTEX 1 1 05560U 71089A 09183.53836346 .00000058 00000-0 16321-4 0 8450 2 05560 092.7090 348.4911 0018979 061.8039 298.5077 14.46203198980829 SL-8 R/B 1 05730U 71119B 09183.88179367 +.00000345 +00000-0 +29289-4 0 01880 2 05730 073.9033 125.8200 0805384 209.5706 145.7526 13.76815438802452 COSMOS 482 DESCENT CRAFT 1 06073U 72023E 09184.40123102 .00012994 33508-5 98206-4 0 477 2 06073 052.0965 007.2549 2209867 145.0254 231.8067 11.16900999 17164 OAO 3 (COPERNICUS) 1 06153U 72065A 09183.72677366 +.00000012 +00000-0 +72575-5 0 02212 2 06153 035.0092 334.4763 0006252 161.8722 198.2207 14.56568432956719 ATLAS CENTAUR R/B 1 06155U 72065B 09183.91905991 +.00000028 +00000-0 +88680-5 0 09020 2 06155 035.0069 014.9505 0041101 002.5844 357.5063 14.67975730964216 OPS 8180 (RADCAT) 1 06212U 72076A 09183.87239484 .00001774 00000-0 66633-4 0 7758 2 06212 098.5940 194.4101 0002055 322.1009 038.0030 15.28892863125270 SL-8 R/B 1 07004U 73107B 09183.66319699 +.00002015 +00000-0 +84387-4 0 00587 2 07004 073.9568 219.8507 0428489 080.0985 284.8269 14.67995201802573 SL-8 R/B 1 07338U 74044B 09183.79515692 .00007629 00000-0 15005-3 0 9083 2 07338 082.8821 065.4118 0220174 021.4464 339.5733 15.24856774801971 DELTA 1 R/B 1 08063U 75072B 09183.81115069 .00005469 00000-0 15565-3 0 2813 2 08063 089.1512 336.6978 0946166 213.9172 139.7918 13.68619938470827 SL-8 R/B 1 08459U 75112B 09183.65304925 -.00000013 +00000-0 +46633-5 0 06930 2 08459 074.0609 041.7048 0016844 220.8042 139.1842 14.35884664756914 SL-3 R/B 1 10114U 77057B 09183.74121473 -.00000502 +00000-0 -27926-4 0 08801 2 10114 097.4970 080.5869 0015817 303.3077 056.6670 15.08757397744317 SL-3 R/B 1 10861U 78045B 09183.68763794 +.00001165 +00000-0 +29725-4 0 00556 2 10861 081.2020 060.3132 0019363 293.0638 066.8541 15.38421603707703 SEASAT 1 1 10967U 78064A 09183.51831766 -.00000056 00000-0 24392-4 0 8575 2 10967 108.0182 355.5059 0002819 275.1507 084.9320 14.42148102627383 SL-14 R/B 1 11267U 79011B 09183.83497431 +.00000080 +00000-0 +61303-5 0 08361 2 11267 082.5239 088.8761 0018034 153.7757 206.4381 14.87008865643326 SL-3 R/B (Decayed 2009-05-09) 1 11332U 79032B 09128.99194196 .28742236 -98106-6 11963-3 0 3452 2 11332 081.2079 330.3676 0011717 252.5071 107.8361 16.57177424659095 SL-8 R/B 1 11574U 79089B 09183.55288422 .00000089 00000-0 36691-4 0 3156 2 11574 074.0664 179.2132 0015426 105.5382 254.7478 14.39600329558758 SL-14 R/B 1 11672U 80005B 09183.85999000 .00000066 00000-0 47390-5 0 4446 2 11672 082.5152 298.0608 0015709 228.0175 131.9708 14.86060192591531 SL-3 R/B 1 11849U 80051B 09183.62586479 +.00000457 +00000-0 +21065-4 0 08695 2 11849 097.7019 315.6080 0010723 191.2257 168.8781 15.25561782590028 SL-3 R/B 1 11933U 80069B 09183.63334314 +.00001138 +00000-0 +33309-4 0 07328 2 11933 081.2190 015.6852 0023833 151.3763 208.8767 15.34036932583530 COSMOS 1220 1 12054U 80089A 09183.65360851 +.00000940 +00000-0 +47522-4 0 00451 2 12054 064.9746 251.2980 0048199 170.4798 189.7260 15.23096210470580 SL-8 R/B 1 12139U 81003B 09183.72909082 +.00000426 +00000-0 +24014-4 0 08071 2 12139 082.9595 048.8053 0593118 190.3262 168.5231 14.24257960429409 SL-8 R/B 1 12389U 81033B 09183.84785630 +.00004548 +00000-0 +14618-3 0 03853 2 12389 082.9173 308.8446 0410590 140.8173 222.3545 14.77267173439319 SL-3 R/B 1 12465U 81046B 09183.81838734 -.00000353 00000-0 -26562-4 0 8616 2 12465 081.2282 099.3901 0036487 240.3855 119.3713 15.04401986529301 METEOR PRIRODA 1 12585U 81065A 09183.68990725 -.00000480 +00000-0 -27713-4 0 04193 2 12585 097.4082 229.2464 0020492 028.6294 331.6050 15.07260698522898 SL-3 R/B 1 12904U 81103B 09183.83330008 -.00000107 +00000-0 -10680-4 0 09242 2 12904 081.1812 334.9454 0031566 211.7199 148.2139 14.98507700056709 SL-3 R/B 1 13068U 82013B 09183.80533220 -.00000205 +00000-0 -18110-4 0 09282 2 13068 081.2074 280.9135 0025996 135.2471 225.0852 15.00278643486877 SL-3 R/B 1 13154U 82039B 09183.84838891 +.00000154 +00000-0 +12661-4 0 06870 2 13154 081.1839 255.4800 0044868 350.0375 009.9962 14.92732284469447 COSMOS 1400 1 13402U 82079A 09183.83825078 +.00001320 +00000-0 +46714-4 0 08292 2 13402 081.1316 105.1045 0009548 067.5999 292.6239 15.28395915471664 SL-3 R/B 1 13403U 82079B 09183.81317553 -.00000292 +00000-0 -25471-4 0 00473 2 13403 081.1734 336.2535 0041258 076.5354 284.0442 14.99126483460331 SL-3 R/B 1 13819U 83010B 09183.66066272 -.00000099 00000-0 -84437-5 0 4873 2 13819 081.1066 285.0229 0037348 200.4585 159.5118 15.05052612435305 COSMOS 1484 1 14207U 83075A 09183.87796197 +.00002122 +00000-0 +46847-4 0 03558 2 14207 097.5381 302.3605 0016273 161.2033 198.9796 15.44987558863791 SL-3 R/B 1 14208U 83075B 09183.62529619 +.00000530 +00000-0 +44162-4 0 06636 2 14208 097.6790 237.6820 0046308 333.6181 026.2709 15.02202645410120 COSMOS 1500 1 14372U 83099A 09183.85279137 -.00000127 +00000-0 -11240-4 0 01748 2 14372 082.5319 298.0348 0013637 338.0499 022.0141 15.04117784399297 SL-8 R/B 1 14484U 83111B 09183.82202402 +.00001443 +00000-0 +46949-4 0 09297 2 14484 082.8485 177.7950 0431310 263.6400 091.5540 14.72618412302709 COSMOS 1536 1 14699U 84013A 09183.76776586 +.00000110 +00000-0 +69568-5 0 05063 2 14699 082.5270 245.8435 0013526 183.0821 177.0320 14.98066845377071 COSMOS 1544 1 14819U 84027A 09183.94952373 +.00001084 +00000-0 +68808-4 0 05451 2 14819 082.5271 015.6173 0011417 079.3248 280.9267 15.07832942375752 SL-14 R/B 1 14820U 84027B 09183.49123764 +.00000041 +00000-0 +22026-5 0 01223 2 14820 082.5404 176.9649 0017552 281.2261 078.6979 14.82095024365245 ERBS 1 15354U 84108B 09183.85698349 -.00000284 +00000-0 +83671-6 0 01440 2 15354 056.9875 090.6099 0023612 097.0458 263.3256 15.15791512354433 SL-8 R/B 1 15483U 85006B 09183.80806371 +.00000035 +00000-0 +21441-4 0 08043 2 15483 074.0454 284.7441 0019620 261.4269 098.4658 14.35224112279468 SL-12 R/B(2) 1 15772U 85042D 09183.62020558 -.00000149 00000-0 -46627-4 0 9917 2 15772 071.1073 345.7949 0037326 241.0056 118.7368 14.20703009248579 SL-14 R/B 1 15945U 85069B 09183.86625115 +.00000087 +00000-0 +78052-5 0 01014 2 15945 082.5267 331.2304 0021071 136.7417 223.5457 14.82432304290260 SL-3 R/B 1 16111U 85090B 09183.86578570 .00000293 00000-0 16984-4 0 9793 2 16111 097.5923 243.6470 0033369 266.7349 093.0021 15.19667565299482 SL-16 R/B 1 16182U 85097B 09183.68092913 -.00000214 00000-0 -84041-4 0 8951 2 16182 071.0017 001.7325 0008409 193.4184 166.6741 14.15952824224768 SL-14 R/B 1 16496U 86006B 09183.63191191 +.00000015 +00000-0 -10807-5 0 00133 2 16496 082.5227 209.1914 0018255 293.6254 066.3041 14.82531549266514 SL-14 R/B 1 16792U 86046B 09183.64436566 +.00000065 +00000-0 +51260-5 0 09136 2 16792 082.4805 053.7449 0026000 127.4541 232.9038 14.81661294244300 SL-14 R/B 1 16882U 86055B 09183.75925295 +.00000064 +00000-0 +51084-5 0 09076 2 16882 082.5194 070.7058 0018497 252.5150 107.4024 14.81609481237330 COSMOS 1812 1 17295U 87003A 09183.84192571 .00000877 00000-0 63976-4 0 9526 2 17295 082.5224 091.8678 0013146 352.0252 008.0758 15.02422817221085 SL-14 R/B 1 17567U 87024B 09183.65533252 +.00000059 +00000-0 +43574-5 0 08079 2 17567 082.5271 035.7842 0018610 197.7679 162.2885 14.82177296205741 COSMOS 1833 1 17589U 87027A 09183.93606911 +.00000225 +00000-0 +14716-3 0 03535 2 17589 070.9043 171.7551 0000541 268.7081 091.3981 14.12740774149837 SL-16 R/B 1 17590U 87027B 09183.85455615 -.00000041 +00000-0 +36116-5 0 03617 2 17590 070.9982 148.5296 0003404 043.7214 316.4196 14.16471646152543 SL-14 R/B 1 17912U 87038B 09183.86761503 +.00000058 +00000-0 +43585-5 0 07950 2 17912 082.5006 253.6820 0022673 070.0918 290.2728 14.81480190197243 COSMOS 1844 1 17973U 87041A 09183.79205186 +.00000325 +00000-0 +19645-3 0 03842 2 17973 070.8938 277.1493 0031252 167.5684 192.6215 14.13722819142345 SL-14 R/B 1 18153U 87055B 09183.84011432 .00000070 00000-0 59364-5 0 8007 2 18153 082.5001 309.4649 0020726 288.3325 071.5635 14.81707965187808 COSMOS 1867 1 18187U 87060A 09183.74957936 -.00000048 00000-0 19844-4 0 6324 2 18187 065.0112 081.2045 0013219 267.3696 092.5858 14.30853902148136 SL-14 R/B 1 18749U 88001B 09183.41120565 +.00000058 +00000-0 +42955-5 0 08083 2 18749 082.5129 145.1142 0020022 151.0346 209.1992 14.81649325159866 COSMOS 1933 1 18958U 88020A 09183.93067145 +.00000020 +00000-0 -66658-6 0 06970 2 18958 082.5303 011.8542 0015162 039.4834 320.7491 14.96726930155982 SL-3 R/B 1 19046U 88032B 09183.70361712 -.00000176 +00000-0 -10022-4 0 02223 2 19046 097.9031 220.8807 0038513 032.6309 327.7328 14.95905655137339 SL-16 R/B 1 19120U 88039B 09183.86868567 +.00000064 +00000-0 +54170-4 0 07445 2 19120 071.0111 343.6821 0024064 317.0903 042.8352 14.18583958094124 COSMOS 1953 1 19210U 88050A 09183.91842380 +.00000342 +00000-0 +27566-4 0 08101 2 19210 082.5188 309.4276 0018239 026.4431 333.7717 14.96594493142047 SL-8 R/B 1 19257U 88053B 09183.50011454 -.00000094 +00000-0 -23181-4 0 06260 2 19257 074.0475 155.3862 0019898 045.7893 314.4890 14.36385490101299 COSMOS 1975 1 19573U 88093A 09183.86693412 +.00000087 +00000-0 +53933-5 0 05891 2 19573 082.5245 254.5429 0019387 042.0527 318.2177 14.95391923124385 SL-14 R/B 1 19574U 88093B 09183.83439282 +.00000070 +00000-0 +58237-5 0 07876 2 19574 082.5312 338.7629 0021829 331.6114 028.3909 14.81748842118871 SL-16 R/B 1 19650U 88102B 09183.64746629 -.00000141 00000-0 -47625-4 0 9047 2 19650 070.9990 005.3798 0016061 282.9796 076.9504 14.15514936 64668 INTERCOSMOS 24 1 20261U 89080A 09183.91619596 -.00000069 +00000-0 -22232-4 0 09838 2 20261 082.5905 088.9867 1214180 304.0471 045.1035 12.53434419901558 SL-14 R/B 1 20262U 89080C 09183.88588847 .00000125 00000-0 30530-4 0 4037 2 20262 082.5925 115.5996 1243197 035.9203 331.9313 12.47759001899128 DELTA 1 R/B 1 20323U 89089B 09183.61507743 +.00000030 +00000-0 +17335-4 0 05024 2 20323 097.0617 195.0760 0072410 212.9517 146.7162 14.46749706034283 DELTA 2 R/B(1) 1 20453U 90008B 09183.64619490 +.00000242 +00000-0 +21024-4 0 05235 2 20453 035.6342 044.5989 0377961 239.8706 116.4056 14.59419125020293 COSMOS 2058 1 20465U 90010A 09183.89187246 +.00000004 +00000-0 -21951-5 0 05076 2 20465 082.4917 145.4027 0016404 312.1947 047.7862 14.90972489051457 SL-14 R/B 1 20466U 90010B 09183.62177386 .00000044 00000-0 27254-5 0 3996 2 20466 082.5006 208.8977 0021783 149.5219 210.7260 14.79900056 47442 SL-14 R/B 1 20511U 90018B 09183.81997120 +.00000058 +00000-0 +47927-5 0 04111 2 20511 082.5219 137.5030 0016023 274.7615 085.1774 14.78618959042412 HST 1 20580U 90037B 09182.21105557 +.00001468 +00000-0 +10000-3 0 04145 2 20580 028.4715 010.7573 0003745 065.8123 294.2958 15.00816593851967 SL-16 R/B 1 20625U 90046B 09183.41541449 -.00000266 +00000-0 -11382-3 0 03355 2 20625 070.9976 128.6024 0015602 208.7451 151.2813 14.14372630986802 COSMOS 2084 1 20663U 90055A 09183.96837871 -.00000022 +00000-0 +18068-4 0 05635 2 20663 062.7911 154.5995 0096090 018.9282 341.5320 14.85313791027309 SL-6 R/B(2) 1 20666U 90055D 09183.81695886 -.00000020 +00000-0 +17932-4 0 06302 2 20666 062.7856 087.5003 0113013 038.9425 321.9719 14.86389818028445 SL-8 R/B 1 20775U 90078B 09183.54753630 +.00001586 +00000-0 +89206-4 0 09336 2 20775 082.9346 205.0311 0730626 059.0903 308.0010 13.97979741938321 SL-14 R/B (Decayed 2007-01-08) 1 20967U 90104B 07008.18498612 .13537369 -13386-5 56173-4 0 5448 2 20967 082.4240 094.1023 0009798 286.5108 140.5507 16.57327006903997 SL-8 R/B 1 21088U 91006B 09183.59745676 +.00000078 +00000-0 +63743-4 0 04497 2 21088 082.9397 020.3228 0022441 170.4028 189.7558 13.76741124925624 OKEAN 3 1 21397U 91039A 09183.58720002 +.00000095 +00000-0 +78880-5 0 06952 2 21397 082.5215 005.3956 0018970 185.0154 175.0860 14.86831053977160 COSMOS 2151 1 21422U 91042A 09183.76447261 +.00000062 +00000-0 +41762-5 0 03251 2 21422 082.5012 121.5504 0013831 240.6095 119.3750 14.87481848975876 SL-14 R/B 1 21423U 91042B 09183.46310901 +.00000042 +00000-0 +25624-5 0 02031 2 21423 082.4923 154.6308 0019622 045.2654 315.0150 14.78397785972951 ERS 1 1 21574U 91050A 09183.68267792 -.00000034 +00000-0 +21045-5 0 04936 2 21574 098.1582 201.0196 0034799 025.7554 334.5348 14.35679866940315 ARIANE 40 R/B 1 21610U 91050F 09183.82035431 +.00000049 +00000-0 +30340-4 0 00620 2 21610 098.6362 149.4433 0002848 331.0216 029.0811 14.39078880941858 UARS 1 21701U 91063B 09183.80712739 +.00004483 +00000-0 +64161-4 0 07122 2 21701 056.9716 295.9816 0074022 198.7950 161.0375 15.55449707981650 INTERCOSMOS 25 1 21819U 91086A 09183.90821001 +.00000609 +00000-0 +11331-3 0 08397 2 21819 082.5548 001.5610 1550175 120.3024 256.0519 11.99013883763258 SL-14 R/B 1 21820U 91086B 09183.82608805 +.00000100 +00000-0 +18396-4 0 07052 2 21820 082.5652 029.0431 1587488 212.8389 136.3520 11.90852782760530 SL-8 R/B 1 21876U 92008B 09183.94856417 +.00000043 +00000-0 +29183-4 0 06045 2 21876 082.9259 116.7092 0033273 224.2582 135.5912 13.75368547871865 SL-8 R/B 1 21938U 92020B 09183.97218415 +.00000111 +00000-0 +99556-4 0 05968 2 21938 082.9276 357.6329 0030344 021.6456 338.5974 13.75031258863878 SL-16 R/B 1 22220U 92076B 09183.65094700 +.00000076 +00000-0 +62311-4 0 09321 2 22220 071.0001 055.8545 0011966 013.6031 346.5391 14.16148349859259 SL-16 R/B 1 22285U 92093B 09183.65100371 -.00000218 +00000-0 -88521-4 0 09469 2 22285 071.0185 188.0985 0006404 245.4717 114.5737 14.14732791851434 COSMOS 2228 1 22286U 92094A 09184.52505297 .00000101 00000-0 93876-5 0 3692 2 22286 082.5189 222.5497 0022946 011.8320 348.3436 14.83044913891246 SL-16 R/B 1 22566U 93016B 09183.75775162 -.00000264 +00000-0 -11222-3 0 06779 2 22566 071.0075 046.0929 0012107 239.1709 120.8206 14.14645154840203 COSMOS 2242 1 22626U 93024A 09183.70332690 .00000133 00000-0 13254-4 0 5360 2 22626 082.5211 250.9805 0021599 015.3568 344.8313 14.83198644874757 SL-16 R/B 1 22803U 93059B 09183.81513704 -.00000236 +00000-0 -94205-4 0 08975 2 22803 070.9891 252.4366 0015903 135.8918 224.3507 14.16541408816688 ARIANE 40 R/B 1 22830U 93061H 09183.82381643 -.00000006 00000-0 14350-4 0 7699 2 22830 098.5752 133.1355 0011106 153.0232 207.1537 14.30479940822603 COSMOS 2278 1 23087U 94023A 09183.88805878 +.00000295 +00000-0 +18254-3 0 05110 2 23087 071.0519 310.8269 0008723 323.1459 036.9068 14.13291922783814 SL-16 R/B 1 23088U 94023B 09183.74063969 +.00000318 +00000-0 +19064-3 0 05715 2 23088 070.9992 261.1072 0004477 214.6970 145.3853 14.14463640784549 SL-16 R/B 1 23343U 94074B 09183.46509383 -.00000010 +00000-0 +60205-5 0 05174 2 23343 098.0257 149.0280 0007861 024.6839 335.4741 14.74983921788116 SL-16 R/B 1 23405U 94077B 09183.94565841 -.00000048 +00000-0 +00000-0 0 01304 2 23405 070.9753 204.3900 0001226 016.4586 343.6578 14.14918482754392 ERS 2 1 23560U 95021A 09184.40311827 -.00000517 00000-0 -17542-3 0 2362 2 23560 098.5538 259.3804 0001347 101.5059 258.6276 14.32242445742531 ARIANE 40+ R/B 1 23561U 95021B 09183.88061975 +.00000019 +00000-0 +21214-4 0 03504 2 23561 098.4376 134.6698 0006027 247.8518 112.2031 14.36380247743847 SL-16 R/B 1 23705U 95058B 09183.88173568 +.00000274 +00000-0 +16648-3 0 09329 2 23705 071.0186 005.2648 0011137 043.7238 316.4777 14.14868716706089 SL-16 R/B 1 24298U 96051B 09183.89017466 -.00000058 00000-0 -51676-5 0 905 2 24298 070.8800 061.1316 0018100 201.6952 158.3404 14.12382569661451 ORBVIEW 2 (SEASTAR) 1 24883U 97037A 09183.90533599 +.00000044 +00000-0 +19074-4 0 08593 2 24883 098.3429 307.8993 0002001 129.0324 231.1052 14.59994184634736 SL-16 R/B 1 25400U 98043G 09183.61003865 -.00000016 +00000-0 +10755-4 0 02561 2 25400 098.3724 230.6398 0009542 183.8287 176.2820 14.25099160571066 SL-16 R/B 1 25407U 98045B 09183.70758028 -.00000204 00000-0 -79978-4 0 771 2 25407 071.0103 027.8537 0009180 306.2287 053.7961 14.15500297564864 ISS (ZARYA) 1 25544U 98067A 09183.85137731 +.00005281 +00000-0 +40369-4 0 01462 2 25544 051.6375 226.4758 0007747 177.6935 179.0558 15.74137426608410 SL-8 R/B 1 25723U 99022C 09183.82330858 +.00000621 +00000-0 +47302-4 0 03374 2 25723 048.4415 330.7483 0021875 202.8521 157.1436 15.16077424561677 CZ-4 R/B 1 25732U 99025C 09183.85826203 -.00000029 00000-0 63510-5 0 1409 2 25732 098.6430 158.8510 0038381 115.4708 245.0447 14.17187813524927 OKEAN O 1 25860U 99039A 09183.78927756 +.00000007 +00000-0 +82955-5 0 07206 2 25860 097.7865 164.3493 0001750 095.0306 265.1099 14.73578603535448 SL-16 R/B 1 25861U 99039B 09183.87958725 -.00000015 +00000-0 +47331-5 0 00872 2 25861 097.7019 172.1669 0017118 111.6575 248.6463 14.76609348536659 SL-14 R/B 1 26874U 01032B 09183.65984436 .00000575 00000-0 15630-4 0 1795 2 26874 082.4795 044.4757 0025406 083.8332 276.5837 15.34891977442641 ENVISAT 1 27386U 02009A 09183.89237107 -.00000033 +00000-0 +39812-5 0 01037 2 27386 098.5459 251.0511 0001019 090.6791 269.4499 14.32249575383746 IDEFIX/ARIANE 42P 1 27422U 02021B 09183.79071200 +.00000000 +00000-0 +17225-4 0 00889 2 27422 098.5232 262.6812 0012473 173.5071 186.6272 14.28498250371631 AQUA 1 27424U 02022A 09183.92664600 +.00000121 +00000-0 +36919-4 0 03573 2 27424 098.1780 125.9553 0001997 084.6821 275.4645 14.57130069381055 CZ-4B R/B 1 27432U 02024C 09183.76427781 +.00000073 +00000-0 +60031-4 0 06181 2 27432 098.5742 167.4086 0051174 024.3001 336.0567 14.13608255368119 ADEOS 2 1 27597U 02056A 09183.71251304 .00000067 00000-0 45458-4 0 8933 2 27597 098.4728 247.7151 0000255 133.5176 226.6050 14.26169459341001 H-2A R/B 1 27601U 02056E 09183.35153026 +.00000029 +00000-0 +27175-4 0 06652 2 27601 098.5722 272.7904 0072295 237.5071 121.9111 14.30709591342039 H-2A R/B 1 27700U 03009C 09183.97040784 +.00002570 +00000-0 +68915-4 0 08668 2 27700 097.0159 205.8701 0043931 060.5706 299.9932 15.37876680350121 CZ-4 R/B 1 28059U 03049C 09183.86674334 .00000001 00000-0 12248-4 0 6104 2 28059 098.5280 306.2045 0051979 085.1195 275.5940 14.51436835301947 CZ-2C R/B 1 28222U 04012C 09183.78502722 -.00000472 +00000-0 -34792-4 0 06538 2 28222 097.4365 230.1957 0055326 003.7834 356.3801 14.97027538284315 SL-16 R/B 1 28353U 04021B 09183.92816830 -.00000099 +00000-0 -27162-4 0 03903 2 28353 071.0015 051.8535 0006884 283.0255 077.0074 14.13918421261339 CZ-4B R/B 1 28471U 04044B 09183.66951252 +.00001790 +00000-0 +43391-4 0 03851 2 28471 096.9808 207.8490 0103708 302.4324 056.6921 15.36997910260288 CZ-2C R/B 1 28480U 04046B 09183.82336653 -.00000057 00000-0 -65865-5 0 5459 2 28480 098.1873 091.3032 0143492 172.1644 188.1630 14.24822137240272 ARIANE 5 R/B 1 28499U 04049H 09183.81673138 -.00000019 +00000-0 +55927-5 0 04424 2 28499 098.2613 161.9005 0096991 182.0101 178.0729 14.77105252244583 CZ-2D R/B 1 28738U 05024B 09183.62756341 -.00000318 00000-0 -20259-4 0 3556 2 28738 097.7638 199.1522 0013714 126.4755 233.7728 15.00635062218578 ASTRO E2 1 28773U 05025A 09183.32581037 +.00000229 +00000-0 +11868-4 0 00339 2 28773 031.4046 173.2303 0006531 008.5674 351.5079 15.00803601218488 ALOS 1 28931U 06002A 09184.46069310 .00000129 00000-0 36831-4 0 8730 2 28931 098.1893 259.3793 0001372 096.0697 264.0661 14.59555604183271 H-2A R/B 1 28932U 06002B 09183.82058393 +.00000050 +00000-0 +12886-4 0 01199 2 28932 098.2085 304.5173 0107453 027.2990 333.3808 14.82602389186017 ASTRO F (AKARI) 1 28939U 06005A 09183.64914456 +.00000081 +00000-0 +27896-4 0 00291 2 28939 098.2456 186.7493 0009215 127.7689 232.4353 14.57548090178340 M-5 R/B 1 28942U 06005D 09183.93972682 +.00018079 +24882-5 +14499-3 0 09492 2 28942 098.1444 340.2351 0178485 141.0082 220.4165 15.53617063188435 RESURS DK-1 1 29228U 06021A 09183.88166973 +.00001435 +00000-0 +34207-4 0 04405 2 29228 069.9333 330.1550 0160723 147.8078 213.3049 15.32360129170731 COSMOS 2421 1 29247U 06026A 09182.63408345 +.00010121 +00000-0 +11843-3 0 07477 2 29247 065.0353 231.7322 0019907 262.5846 097.3042 15.61830414171341 GENESIS 1 1 29252U 06029A 09183.89241473 +.00000038 +00000-0 +16006-4 0 08241 2 29252 064.5084 304.8177 0031684 208.6126 151.3251 15.03394484163274 H-2A R/B 1 29394U 06037B 09183.91434616 +.00002100 +00000-0 +52759-4 0 08790 2 29394 097.3239 308.5023 0035946 302.9544 056.8247 15.40528079157609 M-5 R/B 1 29480U 06041B 09183.67319043 +.00068313 +44140-5 +15776-3 0 08894 2 29480 098.2787 008.5313 0082415 067.7651 293.2331 15.91398692157603 CZ-4 R/B 1 29507U 06046C 09183.88344248 -.00000439 +00000-0 -36481-4 0 08815 2 29507 097.6525 188.4669 0043277 259.2883 100.3452 14.92426580146592 SL-8 R/B 1 29659U 06060B 09183.85256525 .00000955 00000-0 36679-4 0 7444 2 29659 098.0777 284.2350 0038127 183.9040 176.1897 15.28735393141428 ATLAS 5 CENTAUR R/B 1 30778U 07006G 09183.70601924 +.00000423 +00000-0 +24495-4 0 06240 2 30778 035.7051 286.3378 0030923 032.5023 327.7599 15.15684920128450 CZ-2C R/B 1 31114U 07010B 09183.70395383 -.00000033 00000-0 31493-5 0 5906 2 31114 098.2679 220.1974 0060923 026.8912 333.5421 14.18628934115358 GENESIS 2 1 31789U 07028A 09183.91715778 +.00000041 +00000-0 +16514-4 0 05713 2 31789 064.5039 335.8505 0057992 260.2316 099.2244 15.03050619110493 COSMOS 2428 1 31792U 07029A 09184.46218110 -.00000363 00000-0 -17113-3 0 2460 2 31792 071.0038 017.1703 0010295 339.9028 020.1688 14.12409027103798 SL-16 R/B 1 31793U 07029B 09183.84101361 +.00000272 +00000-0 +16786-3 0 05916 2 31793 070.9771 011.8420 0001522 249.1420 110.9540 14.14046601103825